"Pseudo-MPEC" for P11C80Q

Created 2022 Nov 27 7:22:20 UT using Find_Orb

Click here for an explanation of pseudo-MPECs

 
 Astrometry: 
     P11C80Q* C2022 11 24N4/]rPeNPuR7Lospf`Km?AstrometryC(qM@inredacted;;E^iYF51
     P11C80Q  C2022 11 24G,xEZN@3?F\l,BpK?RBls2:h1y1D7Px\eVRV4lsky;;JZmG'@3A.F51
     P11C80Q  C2022 11 24Dt?BuVMMl8Tj.YX,#y!$52KR^8;\fZ$;kQi7Cwn3+MF_YI94h=ITF51
     P11C80Q KC2022 11 26hf`X!bDclick6@:[r]L;4@)?m)X,q:t4d(V*i\bDx`Z?ok7B`KijH21
     P11C80Q KC2022 11 26dL#jYt_-/#j?aY##T=8sad/]K[n%du(here.T#m;fJ++eahv,hi$H21
     P11C80Q KC2022 11 26OT33Yn3'tw+0YSLEW1forQCP81L.q:xuCR/VexplanationeWCl+H21
     P11C80Q KC2022 11 27.17211203 51 43.333+31 59 19.72   ~BR4b 21.09GVNEOCPV06
     P11C80Q KC2022 11 27.17334903 51 43.207+31 59 20.83   ~BR4b 21.63GVNEOCPV06
     P11C80Q KC2022 11 27.17458703 51 43.135+31 59 22.42   ~BR4b 22.46GVNEOCPV06
     P11C80Q KC2022 11 27.17582603 51 43.031+31 59 22.96   ~BR4b       VNEOCPV06

Station data:
(F51) Pan-STARRS 1, Haleakala  (N20.707234 W156.255910)  US/Hawaii.
   Observers J. Bulger, T. Lowe, A. Schultz, M. Willman. Measurers K.
   Chambers, S. Chastel, T. de Boer, L. Denneau, J. Fairlamb, H. Flewelling,
   M. Huber, C.-C. Lin, E. Magnier, Y. Ramanjooloo, R. Wainscoat, R. Weryk.
   1.8-m Ritchey-Chrétien + CCD.
(H21) Astronomical Research Observatory, Westfield  (N39.483054 W87.968270)
   US/Illinois.  Observer R. Holmes. Measurers S. Foglia, L. Buzzi, T.
   Linder, R. Holmes. 0.76-m f/3.0 astrograph + CCD0.81-m f/4.0 astrograph +
   CCD0.61-m f/4.5 astrograph + CCD0.40-m f/5.32 astrograph + CCD.
(V06) Catalina Sky Survey-Kuiper  (N32.416844 W110.732550)  US/Arizona.
   Observers T. A. Pruyne, B. M. Africano, E. J. Christensen, G. A. Farneth,
   D. C. Fuls, A. R. Gibbs, A. D. Grauer, H. Gröller, J. A. Johnson, R. A.
   Kowalski, S. M. Larson, G. J. Leonard, D. Rankin, R. L. Seaman, F. C.
   Shelly, K. W. Wierzchoś. 1.55-m reflector + CCD.

Orbital elements:  P11C80Q
   Perihelion 2022 Nov 29.39025 +/- 4.84 TT =  9:21:57 (JD 2459912.89025)
Epoch 2022 Nov 27.0 TT = JDT 2459910.5   Earth MOID: 0.7213   AutoNEOCP
M 359.49520704 +/- 1.0              (J2000 ecliptic)
n   0.21118868 +/- 0.0317           Peri.   17.10320 +/- 3.2
a   2.79268715 +/- 0.28             Node    48.56718 +/- 0.8
e   0.3904045 +/- 0.0369            Incl.   18.05734 +/- 1.8
P   4.67                   H 20.9   G  0.15   U 10.4
q 1.70240946 +/- 0.0673    Q 3.88296485 +/- 0.492
From 10 observations 2022 Nov. 24-27; mean residual 0".19
Residuals in arcseconds: 
221124 F51  .02-  .05-    221126 H21  .05+  .10-    221127 V06  .12+  .24+    
221124 F51  .01+  .02+    221126 H21  .07-  .10-    221127 V06  .10+  .61-    
221124 F51  .00   .03+    221127 V06  .04+  .32+    
221126 H21  .03+  .21+    221127 V06  .27-  .04+    

Ephemerides (geocentric):
Date (UTC) HH   RA             Dec           delta  r     elong  mag " sig PA
---- --------  ------------   ------------  ------ ------ -----  --- --------
2022 11 27 07  03 51 33.400   +32 01 32.25  .72446 1.7025 168.2 21.9 .724  84
2022 11 27 08  03 51 30.124   +32 02 18.01  .72450 1.7025 168.2 21.9 .749  82
2022 11 27 09  03 51 26.849   +32 03 03.74  .72454 1.7025 168.2 21.9 .774  81
2022 11 27 10  03 51 23.573   +32 03 49.44  .72458 1.7025 168.2 21.9 .801  79
2022 11 27 11  03 51 20.298   +32 04 35.10  .72462 1.7025 168.1 21.9 .828  78
2022 11 27 12  03 51 17.024   +32 05 20.73  .72466 1.7025 168.1 21.9 .855  76
2022 11 27 13  03 51 13.750   +32 06 06.33  .72470 1.7025 168.1 21.9 .883  75
2022 11 27 14  03 51 10.476   +32 06 51.90  .72474 1.7025 168.1 21.9 .912  73
2022 11 27 15  03 51 07.202   +32 07 37.43  .72479 1.7025 168.0 21.9 .941  72
2022 11 27 16  03 51 03.929   +32 08 22.92  .72483 1.7025 168.0 21.9 .971  71
2022 11 27 17  03 51 00.656   +32 09 08.39  .72487 1.7025 168.0 21.9 1.00  69
2022 11 27 18  03 50 57.383   +32 09 53.82  .72492 1.7025 168.0 21.9 1.03  68
2022 11 27 19  03 50 54.111   +32 10 39.22  .72496 1.7025 167.9 21.9 1.06  67
2022 11 27 20  03 50 50.839   +32 11 24.58  .72501 1.7025 167.9 21.9 1.10  66
2022 11 27 21  03 50 47.568   +32 12 09.91  .72505 1.7025 167.9 21.9 1.13  64
2022 11 27 22  03 50 44.297   +32 12 55.21  .72510 1.7025 167.9 21.9 1.16  63
2022 11 27 23  03 50 41.027   +32 13 40.47  .72514 1.7025 167.8 21.9 1.20  62
2022 11 28 00  03 50 37.757   +32 14 25.70  .72519 1.7024 167.8 21.9 1.23  61
2022 11 28 01  03 50 34.488   +32 15 10.89  .72524 1.7024 167.8 21.9 1.27  60
2022 11 28 02  03 50 31.219   +32 15 56.06  .72528 1.7024 167.7 21.9 1.30  59
2022 11 28 03  03 50 27.950   +32 16 41.18  .72533 1.7024 167.7 21.9 1.34  58
2022 11 28 04  03 50 24.682   +32 17 26.28  .72538 1.7024 167.7 21.9 1.38  57
2022 11 28 05  03 50 21.415   +32 18 11.34  .72543 1.7024 167.7 21.9 1.41  56
2022 11 28 06  03 50 18.148   +32 18 56.36  .72548 1.7024 167.6 21.9 1.45  55
2022 11 28 07  03 50 14.881   +32 19 41.36  .72552 1.7024 167.6 21.9 1.49  54
2022 11 28 08  03 50 11.616   +32 20 26.31  .72557 1.7024 167.6 21.9 1.53  53
2022 11 28 09  03 50 08.351   +32 21 11.24  .72562 1.7024 167.6 21.9 1.57  52
2022 11 28 10  03 50 05.086   +32 21 56.13  .72567 1.7024 167.5 21.9 1.61  51
2022 11 28 11  03 50 01.822   +32 22 40.98  .72573 1.7024 167.5 21.9 1.65  50
2022 11 28 12  03 49 58.559   +32 23 25.80  .72578 1.7024 167.5 21.9 1.70  49
2022 11 28 13  03 49 55.296   +32 24 10.59  .72583 1.7024 167.4 21.9 1.74  48
2022 11 28 14  03 49 52.034   +32 24 55.34  .72588 1.7024 167.4 21.9 1.78  47
2022 11 28 15  03 49 48.772   +32 25 40.06  .72593 1.7024 167.4 21.9 1.83  47
2022 11 28 16  03 49 45.512   +32 26 24.75  .72598 1.7024 167.4 21.9 1.87  46
2022 11 28 17  03 49 42.252   +32 27 09.40  .72604 1.7024 167.3 21.9 1.92  45
2022 11 28 18  03 49 38.992   +32 27 54.01  .72609 1.7024 167.3 21.9 1.96  44
2022 11 28 19  03 49 35.734   +32 28 38.59  .72615 1.7024 167.3 21.9 2.01  43
2022 11 28 20  03 49 32.476   +32 29 23.14  .72620 1.7024 167.2 21.9 2.06  43
2022 11 28 21  03 49 29.219   +32 30 07.65  .72626 1.7024 167.2 21.9 2.11  42
2022 11 28 22  03 49 25.962   +32 30 52.13  .72631 1.7024 167.2 21.9 2.16  41
2022 11 28 23  03 49 22.707   +32 31 36.57  .72637 1.7024 167.2 21.9 2.21  40
2022 11 29 00  03 49 19.452   +32 32 20.97  .72642 1.7024 167.1 21.9 2.26  40
2022 11 29 01  03 49 16.198   +32 33 05.35  .72648 1.7024 167.1 21.9 2.31  39
2022 11 29 02  03 49 12.944   +32 33 49.68  .72654 1.7024 167.1 21.9 2.36  38
2022 11 29 03  03 49 09.692   +32 34 33.99  .72659 1.7024 167.0 21.9 2.41  37
2022 11 29 04  03 49 06.440   +32 35 18.25  .72665 1.7024 167.0 21.9 2.47  37
2022 11 29 05  03 49 03.190   +32 36 02.49  .72671 1.7024 167.0 21.9 2.52  36
2022 11 29 06  03 48 59.940   +32 36 46.68  .72677 1.7024 166.9 21.9 2.58  35